Hourly Data Report for September 13, 2017

All times are specified in Local Standard Time (LST). Add 1 hour to adjust for Daylight Saving Time where and when it is observed.

ALGONQUIN PARK EAST GATE
ONTARIO

45°32'00.000" N
78°16'00.000" W
397.00 m
6080192
71581
TNK

Download Data

Hourly Data (September 2017)
Hourly Data Report for September 13, 2017
Temp Definition
°C
Dew Point Temp Definition
°C
Rel Hum Definition
%
Wind Dir Definition
10's deg

Wind Spd Definition
km/h
Visibility Definition
km
Stn Press Definition
kPa
Hmdx Definition


Wind Chill Definition


Weather Definition


TIME
00:00 9.5 8.1 91 LegendMM LegendMM   96.58     LegendNANA
01:00 8.6 7.3 92 LegendMM LegendMM   96.56     LegendNANA
02:00 7.6 6.4 92 LegendMM LegendMM   96.54     LegendNANA
03:00 7.4 6.2 92 LegendMM LegendMM   96.53     LegendNANA
04:00 7.3 6.2 93 LegendMM LegendMM   96.56     LegendNANA
05:00 6.9 5.9 93 LegendMM LegendMM   96.56     LegendNANA
06:00 6.6 5.6 93 LegendMM LegendMM   96.58     LegendNANA
07:00 7.8 6.9 94 LegendMM LegendMM   96.59     LegendNANA
08:00 11.4 10.4 93 LegendMM LegendMM   96.57     LegendNANA
09:00 16.7 12.9 78 LegendMM LegendMM   96.54     LegendNANA
10:00 20.0 11.8 59 LegendMM LegendMM   96.47     LegendNANA
11:00 22.5 12.9 55 LegendMM LegendMM   96.39 25   LegendNANA
12:00 23.8 12.7 50 LegendMM LegendMM   96.34 26   LegendNANA
13:00 23.9 10.0 41 LegendMM LegendMM   96.29 25   LegendNANA
14:00 25.1 11.0 41 LegendMM LegendMM   96.22 27   LegendNANA
15:00 23.4 11.4 47 LegendMM LegendMM   96.20 25   LegendNANA
16:00 22.5 13.8 58 LegendMM LegendMM   96.21 26   LegendNANA
17:00 21.2 15.6 70 LegendMM LegendMM   96.22 26   LegendNANA
18:00 18.3 14.0 76 LegendMM LegendMM   96.22     LegendNANA
19:00 16.2 13.3 83 LegendMM LegendMM   96.26     LegendNANA
20:00 14.4 12.4 88 LegendMM LegendMM   96.28     LegendNANA
21:00 13.0 11.3 89 LegendMM LegendMM   96.29     LegendNANA
22:00 11.5 9.9 90 LegendMM LegendMM   96.32     LegendNANA
23:00 10.5 9.1 91 LegendMM LegendMM   96.31     LegendNANA

Notes on Data Quality.

Legend

  • E = Estimated
  • M = Missing
  • NA = Not Available
  • ‡ = Partner data that is not subject to review by the National Climate Archives
Date modified: